Time,TemperatureF,DewpointF,PressureIn,WindDirection,WindDirectionDegrees,WindSpeedMPH,WindSpeedGustMPH,Humidity,HourlyPrecipIn,Conditions,Clouds,dailyrainin,SolarRadiationWatts/m^2,SoftwareType,DateUTC
2013-02-25 00:00:00,47.2,31.4,29.90,ESE,116,7.0,10.0,54,0.00,,,0.00,0.00,VWS V14.01,2013-02-25 06:00:00,
2013-02-25 00:05:00,47.3,31.5,29.90,ESE,108,5.0,10.0,54,0.00,,,0.00,0.00,VWS V14.01,2013-02-25 06:05:00,
2013-02-25 00:10:00,47.3,31.5,29.90,ESE,115,5.0,8.0,54,0.00,,,0.00,0.00,VWS V14.01,2013-02-25 06:10:00,
2013-02-25 00:15:00,47.2,31.4,29.89,ESE,113,4.0,9.0,54,0.00,,,0.00,0.00,VWS V14.01,2013-02-25 06:15:00,
2013-02-25 00:20:00,47.1,31.3,29.89,ESE,109,2.0,8.0,54,0.00,,,0.00,0.00,VWS V14.01,2013-02-25 06:20:00,
2013-02-25 00:25:00,47.1,31.3,29.89,ESE,108,5.0,9.0,54,0.00,,,0.00,0.00,VWS V14.01,2013-02-25 06:25:00,
2013-02-25 00:30:00,46.9,31.6,29.88,ESE,117,7.0,10.0,55,0.00,,,0.00,0.00,VWS V14.01,2013-02-25 06:30:00,
2013-02-25 00:35:00,47.0,31.7,29.89,ESE,106,9.0,11.0,55,0.00,,,0.00,0.00,VWS V14.01,2013-02-25 06:35:00,
2013-02-25 00:40:00,47.0,31.2,29.89,ESE,112,9.0,11.0,54,0.00,,,0.00,0.00,VWS V14.01,2013-02-25 06:40:00,
2013-02-25 00:45:00,47.0,31.2,29.89,East,98,8.0,13.0,54,0.00,,,0.00,0.00,VWS V14.01,2013-02-25 06:45:00,
2013-02-25 00:50:00,46.9,31.1,29.89,ESE,117,5.0,9.0,54,0.00,,,0.00,0.00,VWS V14.01,2013-02-25 06:50:00,
2013-02-25 00:55:00,46.7,31.4,29.89,ESE,115,5.0,9.0,55,0.00,,,0.00,0.00,VWS V14.01,2013-02-25 06:55:00,
2013-02-25 01:00:00,46.5,31.2,29.89,ESE,109,7.0,7.0,55,0.00,,,0.00,0.00,VWS V14.01,2013-02-25 07:00:00,
2013-02-25 01:05:00,46.3,31.0,29.88,East,96,3.0,9.0,55,0.00,,,0.00,0.00,VWS V14.01,2013-02-25 07:05:00,
2013-02-25 01:10:00,46.3,31.0,29.88,East,97,2.0,8.0,55,0.00,,,0.00,0.00,VWS V14.01,2013-02-25 07:10:00,
2013-02-25 01:15:00,46.3,31.0,29.88,East,82,8.0,10.0,55,0.00,,,0.00,0.00,VWS V14.01,2013-02-25 07:15:00,
2013-02-25 01:20:00,46.1,30.9,29.88,East,90,5.0,6.0,55,0.00,,,0.00,0.00,VWS V14.01,2013-02-25 07:20:00,
2013-02-25 01:25:00,46.0,31.2,29.88,East,86,2.0,7.0,56,0.00,,,0.00,0.00,VWS V14.01,2013-02-25 07:25:00,
2013-02-25 01:30:00,45.9,30.7,29.88,East,95,3.0,5.0,55,0.00,,,0.00,0.00,VWS V14.01,2013-02-25 07:30:00,
2013-02-25 01:35:00,45.9,30.7,29.88,ENE,78,2.0,10.0,55,0.00,,,0.00,0.00,VWS V14.01,2013-02-25 07:35:00,
2013-02-25 01:40:00,45.9,30.7,29.88,East,90,5.0,7.0,55,0.00,,,0.00,0.00,VWS V14.01,2013-02-25 07:40:00,
2013-02-25 01:45:00,45.9,30.7,29.88,East,88,7.0,8.0,55,0.00,,,0.00,0.00,VWS V14.01,2013-02-25 07:45:00,
2013-02-25 01:50:00,45.9,30.2,29.87,East,91,3.0,9.0,54,0.00,,,0.00,0.00,VWS V14.01,2013-02-25 07:50:00,
2013-02-25 01:55:00,45.9,30.2,29.87,East,95,1.0,9.0,54,0.00,,,0.00,0.00,VWS V14.01,2013-02-25 07:55:00,
2013-02-25 02:00:00,45.7,30.5,29.87,ENE,75,3.0,4.0,55,0.00,,,0.00,0.00,VWS V14.01,2013-02-25 08:00:00,
2013-02-25 02:05:00,45.5,30.7,29.86,East,98,3.0,8.0,56,0.00,,,0.00,0.00,VWS V14.01,2013-02-25 08:05:00,
2013-02-25 02:10:00,45.3,30.1,29.86,East,86,6.0,7.0,55,0.00,,,0.00,0.00,VWS V14.01,2013-02-25 08:10:00,
2013-02-25 02:15:00,45.2,30.5,29.85,East,82,3.0,10.0,56,0.00,,,0.00,0.00,VWS V14.01,2013-02-25 08:15:00,
2013-02-25 02:20:00,45.2,30.5,29.86,East,79,2.0,6.0,56,0.00,,,0.00,0.00,VWS V14.01,2013-02-25 08:20:00,
2013-02-25 02:25:00,45.1,30.4,29.87,ESE,109,4.0,9.0,56,0.00,,,0.00,0.00,VWS V14.01,2013-02-25 08:25:00,
2013-02-25 02:30:00,45.1,30.4,29.87,East,90,6.0,6.0,56,0.00,,,0.00,0.00,VWS V14.01,2013-02-25 08:30:00,
2013-02-25 02:35:00,45.0,30.3,29.86,East,95,6.0,8.0,56,0.00,,,0.00,0.00,VWS V14.01,2013-02-25 08:35:00,
2013-02-25 02:40:00,44.9,30.2,29.85,ENE,71,4.0,7.0,56,0.00,,,0.00,0.00,VWS V14.01,2013-02-25 08:40:00,
2013-02-25 02:45:00,44.8,30.1,29.85,East,86,5.0,8.0,56,0.00,,,0.00,0.00,VWS V14.01,2013-02-25 08:45:00,
2013-02-25 02:50:00,44.8,30.1,29.85,ESE,111,3.0,7.0,56,0.00,,,0.00,0.00,VWS V14.01,2013-02-25 08:50:00,
2013-02-25 02:55:00,44.8,30.1,29.85,East,82,2.0,7.0,56,0.00,,,0.00,0.00,VWS V14.01,2013-02-25 08:55:00,
2013-02-25 03:00:00,44.8,30.1,29.86,East,80,1.0,3.0,56,0.00,,,0.00,0.00,VWS V14.01,2013-02-25 09:00:00,
2013-02-25 03:05:00,44.7,30.0,29.85,ENE,67,4.0,7.0,56,0.00,,,0.00,0.00,VWS V14.01,2013-02-25 09:05:00,
2013-02-25 03:10:00,44.6,29.9,29.85,East,83,6.0,9.0,56,0.00,,,0.00,0.00,VWS V14.01,2013-02-25 09:10:00,
2013-02-25 03:15:00,44.6,29.9,29.86,East,79,3.0,9.0,56,0.00,,,0.00,0.00,VWS V14.01,2013-02-25 09:15:00,
2013-02-25 03:20:00,44.5,29.8,29.85,East,81,0.0,3.0,56,0.00,,,0.00,0.00,VWS V14.01,2013-02-25 09:20:00,
2013-02-25 03:25:00,44.3,29.6,29.86,ENE,76,0.0,5.0,56,0.00,,,0.00,0.00,VWS V14.01,2013-02-25 09:25:00,
2013-02-25 03:30:00,44.1,29.4,29.85,ENE,75,1.0,1.0,56,0.00,,,0.00,0.00,VWS V14.01,2013-02-25 09:30:00,
2013-02-25 03:35:00,44.0,29.8,29.85,East,82,6.0,6.0,57,0.00,,,0.00,0.00,VWS V14.01,2013-02-25 09:35:00,
2013-02-25 03:40:00,44.0,29.8,29.84,East,84,3.0,6.0,57,0.00,,,0.00,0.00,VWS V14.01,2013-02-25 09:40:00,
2013-02-25 03:45:00,44.0,29.8,29.84,East,81,2.0,8.0,57,0.00,,,0.00,0.00,VWS V14.01,2013-02-25 09:45:00,
2013-02-25 03:50:00,44.0,29.3,29.84,East,84,5.0,5.0,56,0.00,,,0.00,0.00,VWS V14.01,2013-02-25 09:50:00,
2013-02-25 03:55:00,43.8,29.1,29.84,ENE,78,4.0,9.0,56,0.00,,,0.00,0.00,VWS V14.01,2013-02-25 09:55:00,
2013-02-25 04:00:00,43.7,29.0,29.84,ENE,68,3.0,7.0,56,0.00,,,0.00,0.00,VWS V14.01,2013-02-25 10:00:00,
2013-02-25 04:05:00,43.6,29.0,29.84,East,80,2.0,8.0,56,0.00,,,0.00,0.00,VWS V14.01,2013-02-25 10:05:00,
2013-02-25 04:10:00,43.5,28.9,29.84,ENE,76,2.0,4.0,56,0.00,,,0.00,0.00,VWS V14.01,2013-02-25 10:10:00,
2013-02-25 04:15:00,43.4,28.8,29.84,East,83,2.0,8.0,56,0.00,,,0.00,0.00,VWS V14.01,2013-02-25 10:15:00,
2013-02-25 04:20:00,43.4,28.8,29.84,ENE,71,4.0,7.0,56,0.00,,,0.00,0.00,VWS V14.01,2013-02-25 10:20:00,
2013-02-25 04:25:00,43.4,28.8,29.84,ENE,77,1.0,8.0,56,0.00,,,0.00,0.00,VWS V14.01,2013-02-25 10:25:00,
2013-02-25 04:30:00,43.3,29.1,29.84,East,79,6.0,8.0,57,0.00,,,0.00,0.00,VWS V14.01,2013-02-25 10:30:00,
2013-02-25 04:35:00,43.2,28.6,29.84,East,88,3.0,9.0,56,0.00,,,0.00,0.00,VWS V14.01,2013-02-25 10:35:00,
2013-02-25 04:40:00,43.1,28.9,29.84,ENE,74,5.0,7.0,57,0.00,,,0.00,0.00,VWS V14.01,2013-02-25 10:40:00,
2013-02-25 04:45:00,43.1,28.9,29.83,East,84,3.0,8.0,57,0.00,,,0.00,0.00,VWS V14.01,2013-02-25 10:45:00,
2013-02-25 04:50:00,43.0,28.8,29.83,East,82,3.0,3.0,57,0.00,,,0.00,0.00,VWS V14.01,2013-02-25 10:50:00,
2013-02-25 04:55:00,42.9,28.7,29.84,East,80,8.0,9.0,57,0.00,,,0.00,0.00,VWS V14.01,2013-02-25 10:55:00,
2013-02-25 05:00:00,43.0,28.8,29.83,East,97,5.0,5.0,57,0.00,,,0.00,0.00,VWS V14.01,2013-02-25 11:00:00,
2013-02-25 05:05:00,42.9,28.7,29.84,East,85,2.0,8.0,57,0.00,,,0.00,0.00,VWS V14.01,2013-02-25 11:05:00,
2013-02-25 05:10:00,42.8,28.6,29.84,East,83,5.0,7.0,57,0.00,,,0.00,0.00,VWS V14.01,2013-02-25 11:10:00,
2013-02-25 05:15:00,42.8,28.6,29.84,ESE,105,3.0,9.0,57,0.00,,,0.00,0.00,VWS V14.01,2013-02-25 11:15:00,
2013-02-25 05:20:00,42.8,28.6,29.83,ENE,71,5.0,8.0,57,0.00,,,0.00,0.00,VWS V14.01,2013-02-25 11:20:00,
2013-02-25 05:25:00,42.8,28.6,29.83,ENE,74,8.0,10.0,57,0.00,,,0.00,0.00,VWS V14.01,2013-02-25 11:25:00,
2013-02-25 05:30:00,42.8,28.6,29.83,East,83,3.0,6.0,57,0.00,,,0.00,0.00,VWS V14.01,2013-02-25 11:30:00,
2013-02-25 05:35:00,42.8,28.6,29.83,East,86,5.0,9.0,57,0.00,,,0.00,0.00,VWS V14.01,2013-02-25 11:35:00,
2013-02-25 05:40:00,42.7,28.5,29.84,ENE,78,3.0,7.0,57,0.00,,,0.00,0.00,VWS V14.01,2013-02-25 11:40:00,
2013-02-25 05:45:00,42.5,28.4,29.83,ENE,74,4.0,7.0,57,0.00,,,0.00,0.00,VWS V14.01,2013-02-25 11:45:00,
2013-02-25 05:50:00,42.5,28.8,29.83,East,80,6.0,8.0,58,0.00,,,0.00,0.00,VWS V14.01,2013-02-25 11:50:00,
2013-02-25 05:55:00,42.4,29.9,29.83,East,101,3.0,8.0,61,0.00,,,0.00,0.00,VWS V14.01,2013-02-25 11:55:00,
2013-02-25 06:00:00,42.4,28.7,29.83,ENE,69,7.0,7.0,58,0.00,,,0.00,0.00,VWS V14.01,2013-02-25 12:00:00,
2013-02-25 06:05:00,42.3,28.6,29.83,ESE,102,5.0,8.0,58,0.00,,,0.00,0.00,VWS V14.01,2013-02-25 12:05:00,
2013-02-25 06:10:00,42.1,28.4,29.83,East,94,6.0,6.0,58,0.00,,,0.00,0.00,VWS V14.01,2013-02-25 12:10:00,
2013-02-25 06:15:00,42.0,28.7,29.83,East,92,1.0,8.0,59,0.00,,,0.00,0.00,VWS V14.01,2013-02-25 12:15:00,
2013-02-25 06:20:00,42.0,28.7,29.84,East,84,3.0,6.0,59,0.00,,,0.00,0.00,VWS V14.01,2013-02-25 12:20:00,
2013-02-25 06:25:00,42.1,28.8,29.83,ENE,78,3.0,8.0,59,0.00,,,0.00,0.00,VWS V14.01,2013-02-25 12:25:00,
2013-02-25 06:30:00,42.0,28.7,29.84,East,79,5.0,6.0,59,0.00,,,0.00,0.00,VWS V14.01,2013-02-25 12:30:00,
2013-02-25 06:36:00,41.9,28.6,29.83,East,84,6.0,8.0,59,0.00,,,0.00,0.00,VWS V14.01,2013-02-25 12:36:00,
2013-02-25 06:41:00,41.9,28.6,29.83,East,87,8.0,10.0,59,0.00,,,0.00,5.00,VWS V14.01,2013-02-25 12:41:00,
2013-02-25 06:46:00,41.8,28.5,29.83,ENE,59,5.0,10.0,59,0.00,,,0.00,7.00,VWS V14.01,2013-02-25 12:46:00,
2013-02-25 06:51:00,41.7,28.4,29.83,East,80,6.0,8.0,59,0.00,,,0.00,9.00,VWS V14.01,2013-02-25 12:51:00,
2013-02-25 06:57:00,41.8,28.5,29.83,ESE,103,7.0,8.0,59,0.00,,,0.00,12.00,VWS V14.01,2013-02-25 12:57:00,
2013-02-25 07:02:00,41.8,29.0,29.83,ENE,77,4.0,7.0,60,0.00,,,0.00,16.00,VWS V14.01,2013-02-25 13:02:00,
2013-02-25 07:07:00,41.8,29.0,29.82,ESE,113,4.0,7.0,60,0.00,,,0.00,21.00,VWS V14.01,2013-02-25 13:07:00,
2013-02-25 07:12:00,42.0,29.1,29.82,ESE,111,9.0,9.0,60,0.00,,,0.00,19.00,VWS V14.01,2013-02-25 13:12:00,
2013-02-25 07:17:00,42.3,29.0,29.81,ESE,109,5.0,11.0,59,0.00,,,0.00,21.00,VWS V14.01,2013-02-25 13:17:00,
2013-02-25 07:22:00,42.4,29.1,29.81,ESE,109,7.0,9.0,59,0.00,,,0.00,28.00,VWS V14.01,2013-02-25 13:22:00,
2013-02-25 07:27:00,42.5,29.2,29.81,ESE,103,9.0,10.0,59,0.00,,,0.00,39.00,VWS V14.01,2013-02-25 13:27:00,
2013-02-25 07:32:00,42.7,29.4,29.81,ESE,104,4.0,9.0,59,0.00,,,0.00,39.00,VWS V14.01,2013-02-25 13:32:00,
2013-02-25 07:37:00,42.9,29.2,29.81,ESE,115,7.0,10.0,58,0.00,,,0.00,42.00,VWS V14.01,2013-02-25 13:37:00,
2013-02-25 07:42:00,43.2,29.4,29.80,ESE,114,5.0,11.0,58,0.00,,,0.00,111.00,VWS V14.01,2013-02-25 13:42:00,
2013-02-25 07:47:00,43.8,30.0,29.80,East,92,6.0,11.0,58,0.00,,,0.00,193.00,VWS V14.01,2013-02-25 13:47:00,
2013-02-25 07:52:00,44.5,29.8,29.80,ESE,113,9.0,12.0,56,0.00,,,0.00,221.00,VWS V14.01,2013-02-25 13:52:00,
2013-02-25 07:57:00,45.1,30.4,29.81,ESE,117,8.0,12.0,56,0.00,,,0.00,160.00,VWS V14.01,2013-02-25 13:57:00,
2013-02-25 08:02:00,45.7,30.9,29.82,ESE,107,5.0,10.0,56,0.00,,,0.00,218.00,VWS V14.01,2013-02-25 14:02:00,
2013-02-25 08:07:00,46.3,31.0,29.82,ESE,117,10.0,13.0,55,0.00,,,0.00,123.00,VWS V14.01,2013-02-25 14:07:00,
2013-02-25 08:12:00,46.3,31.0,29.83,ESE,108,7.0,11.0,55,0.00,,,0.00,93.00,VWS V14.01,2013-02-25 14:12:00,
2013-02-25 08:17:00,46.6,31.3,29.82,East,98,3.0,11.0,55,0.00,,,0.00,332.00,VWS V14.01,2013-02-25 14:17:00,
2013-02-25 08:22:00,47.3,31.5,29.82,ESE,119,9.0,9.0,54,0.00,,,0.00,155.00,VWS V14.01,2013-02-25 14:22:00,
2013-02-25 08:27:00,47.6,31.3,29.82,SE,126,8.0,9.0,53,0.00,,,0.00,144.00,VWS V14.01,2013-02-25 14:27:00,
2013-02-25 08:32:00,47.9,31.6,29.82,ESE,111,5.0,13.0,53,0.00,,,0.00,167.00,VWS V14.01,2013-02-25 14:32:00,
2013-02-25 08:37:00,48.5,31.7,29.82,East,88,6.0,13.0,52,0.00,,,0.00,211.00,VWS V14.01,2013-02-25 14:37:00,
2013-02-25 08:42:00,49.4,32.5,29.82,East,89,6.0,9.0,52,0.00,,,0.00,309.00,VWS V14.01,2013-02-25 14:42:00,
2013-02-25 08:47:00,49.9,32.0,29.82,ESE,109,5.0,15.0,50,0.00,,,0.00,223.00,VWS V14.01,2013-02-25 14:47:00,
2013-02-25 08:52:00,50.3,32.4,29.81,East,98,9.0,14.0,50,0.00,,,0.00,455.00,VWS V14.01,2013-02-25 14:52:00,
2013-02-25 08:57:00,50.9,32.4,29.82,ESE,107,7.0,14.0,49,0.00,,,0.00,214.00,VWS V14.01,2013-02-25 14:57:00,
2013-02-25 09:02:00,51.0,32.0,29.82,ESE,116,8.0,13.0,48,0.00,,,0.00,178.00,VWS V14.01,2013-02-25 15:02:00,
2013-02-25 09:07:00,50.8,32.3,29.82,East,96,9.0,13.0,49,0.00,,,0.00,149.00,VWS V14.01,2013-02-25 15:07:00,
2013-02-25 09:12:00,50.7,32.2,29.82,ESE,106,10.0,12.0,49,0.00,,,0.00,141.00,VWS V14.01,2013-02-25 15:12:00,
2013-02-25 09:17:00,50.5,32.6,29.81,ESE,119,3.0,12.0,50,0.00,,,0.00,200.00,VWS V14.01,2013-02-25 15:17:00,
2013-02-25 09:22:00,50.6,32.7,29.81,ENE,74,9.0,14.0,50,0.00,,,0.00,192.00,VWS V14.01,2013-02-25 15:22:00,
2013-02-25 09:27:00,50.9,33.4,29.80,ENE,67,8.0,14.0,51,0.00,,,0.00,408.00,VWS V14.01,2013-02-25 15:27:00,
2013-02-25 09:32:00,51.0,33.0,29.80,East,82,9.0,11.0,50,0.00,,,0.00,200.00,VWS V14.01,2013-02-25 15:32:00,
2013-02-25 09:37:00,51.3,33.3,29.80,ESE,112,4.0,13.0,50,0.00,,,0.00,534.00,VWS V14.01,2013-02-25 15:37:00,
2013-02-25 09:42:00,52.0,34.0,29.80,ESE,116,3.0,13.0,50,0.00,,,0.00,385.00,VWS V14.01,2013-02-25 15:42:00,
2013-02-25 09:47:00,52.6,34.0,29.80,ENE,74,7.0,13.0,49,0.00,,,0.00,468.00,VWS V14.01,2013-02-25 15:47:00,
2013-02-25 09:52:00,53.1,34.5,29.80,ESE,105,3.0,13.0,49,0.00,,,0.00,434.00,VWS V14.01,2013-02-25 15:52:00,
2013-02-25 09:57:00,54.0,35.3,29.79,East,79,8.0,13.0,49,0.00,,,0.00,413.00,VWS V14.01,2013-02-25 15:57:00,
2013-02-25 10:02:00,54.3,36.1,29.79,ESE,104,5.0,11.0,50,0.00,,,0.00,346.00,VWS V14.01,2013-02-25 16:02:00,
2013-02-25 10:07:00,54.9,36.1,29.79,East,93,7.0,14.0,49,0.00,,,0.00,362.00,VWS V14.01,2013-02-25 16:07:00,
2013-02-25 10:12:00,55.3,36.5,29.79,SE,126,9.0,11.0,49,0.00,,,0.00,341.00,VWS V14.01,2013-02-25 16:12:00,
2013-02-25 10:17:00,55.8,37.5,29.79,ESE,112,4.0,12.0,50,0.00,,,0.00,338.00,VWS V14.01,2013-02-25 16:17:00,
2013-02-25 10:22:00,56.4,37.5,29.80,ESE,110,11.0,15.0,49,0.00,,,0.00,320.00,VWS V14.01,2013-02-25 16:22:00,
2013-02-25 10:27:00,56.4,38.0,29.79,ESE,110,12.0,19.0,50,0.00,,,0.00,323.00,VWS V14.01,2013-02-25 16:27:00,
2013-02-25 10:32:00,56.6,38.2,29.79,East,94,11.0,13.0,50,0.00,,,0.00,301.00,VWS V14.01,2013-02-25 16:32:00,
2013-02-25 10:37:00,56.8,38.4,29.78,ESE,106,12.0,16.0,50,0.00,,,0.00,408.00,VWS V14.01,2013-02-25 16:37:00,
2013-02-25 10:42:00,57.2,39.2,29.78,ESE,118,5.0,13.0,51,0.00,,,0.00,390.00,VWS V14.01,2013-02-25 16:42:00,
2013-02-25 10:47:00,57.4,38.9,29.78,ESE,113,8.0,13.0,50,0.00,,,0.00,185.00,VWS V14.01,2013-02-25 16:47:00,
2013-02-25 10:52:00,56.8,38.4,29.77,ENE,78,12.0,16.0,50,0.00,,,0.00,216.00,VWS V14.01,2013-02-25 16:52:00,
2013-02-25 10:57:00,56.3,38.9,29.77,SE,126,12.0,18.0,52,0.00,,,0.00,202.00,VWS V14.01,2013-02-25 16:57:00,
2013-02-25 11:02:00,56.2,38.3,29.77,ESE,102,11.0,15.0,51,0.00,,,0.00,188.00,VWS V14.01,2013-02-25 17:02:00,
2013-02-25 11:07:00,55.9,38.0,29.76,ESE,119,10.0,15.0,51,0.00,,,0.00,236.00,VWS V14.01,2013-02-25 17:07:00,
2013-02-25 11:12:00,56.3,38.4,29.75,ESE,104,11.0,14.0,51,0.00,,,0.00,323.00,VWS V14.01,2013-02-25 17:12:00,
2013-02-25 11:17:00,56.8,38.9,29.75,ESE,119,10.0,14.0,51,0.00,,,0.00,239.00,VWS V14.01,2013-02-25 17:17:00,
2013-02-25 11:22:00,56.8,39.4,29.75,East,101,7.0,10.0,52,0.00,,,0.00,195.00,VWS V14.01,2013-02-25 17:22:00,
2013-02-25 11:27:00,56.6,38.7,29.75,ESE,114,7.0,13.0,51,0.00,,,0.00,178.00,VWS V14.01,2013-02-25 17:27:00,
2013-02-25 11:32:00,56.6,39.2,29.75,ESE,110,8.0,12.0,52,0.00,,,0.00,181.00,VWS V14.01,2013-02-25 17:32:00,
2013-02-25 11:37:00,57.0,41.0,29.75,SE,138,12.0,14.0,55,0.00,,,0.00,207.00,VWS V14.01,2013-02-25 17:37:00,
2013-02-25 11:42:00,57.3,41.8,29.75,SE,126,8.0,12.0,56,0.00,,,0.00,251.00,VWS V14.01,2013-02-25 17:42:00,
2013-02-25 11:47:00,57.6,42.0,29.75,ESE,103,14.0,14.0,56,0.00,,,0.00,211.00,VWS V14.01,2013-02-25 17:47:00,
2013-02-25 11:52:00,57.5,42.4,29.74,ESE,111,11.0,14.0,57,0.00,,,0.00,211.00,VWS V14.01,2013-02-25 17:52:00,
2013-02-25 11:57:00,57.3,42.7,29.74,ESE,121,9.0,16.0,58,0.00,,,0.00,185.00,VWS V14.01,2013-02-25 17:57:00,
2013-02-25 12:02:00,57.3,43.1,29.73,ESE,112,12.0,14.0,59,0.00,,,0.00,204.00,VWS V14.01,2013-02-25 18:02:00,
2013-02-25 12:07:00,57.1,42.9,29.73,ESE,109,9.0,17.0,59,0.00,,,0.00,285.00,VWS V14.01,2013-02-25 18:07:00,
2013-02-25 12:12:00,57.4,43.2,29.73,ESE,117,2.0,10.0,59,0.00,,,0.00,192.00,VWS V14.01,2013-02-25 18:12:00,
2013-02-25 12:17:00,57.4,43.2,29.72,SE,141,10.0,14.0,59,0.00,,,0.00,214.00,VWS V14.01,2013-02-25 18:17:00,
2013-02-25 12:22:00,57.2,43.0,29.72,ESE,122,10.0,15.0,59,0.00,,,0.00,211.00,VWS V14.01,2013-02-25 18:22:00,
2013-02-25 12:27:00,57.3,43.1,29.71,ESE,114,9.0,15.0,59,0.00,,,0.00,171.00,VWS V14.01,2013-02-25 18:27:00,
2013-02-25 12:32:00,57.4,43.2,29.70,East,101,8.0,12.0,59,0.00,,,0.00,172.00,VWS V14.01,2013-02-25 18:32:00,
2013-02-25 12:37:00,57.2,43.5,29.70,SSE,150,10.0,12.0,60,0.00,,,0.00,141.00,VWS V14.01,2013-02-25 18:37:00,
2013-02-25 12:42:00,56.9,42.7,29.70,ESE,122,9.0,15.0,59,0.00,,,0.00,172.00,VWS V14.01,2013-02-25 18:42:00,
2013-02-25 12:47:00,57.1,43.4,29.69,SE,128,5.0,15.0,60,0.00,,,0.00,144.00,VWS V14.01,2013-02-25 18:47:00,
2013-02-25 12:52:00,57.1,43.8,29.68,ESE,117,5.0,9.0,61,0.00,,,0.00,162.00,VWS V14.01,2013-02-25 18:52:00,
2013-02-25 12:57:00,57.0,44.1,29.68,ESE,118,5.0,16.0,62,0.00,,,0.00,183.00,VWS V14.01,2013-02-25 18:57:00,
2013-02-25 13:02:00,56.9,44.9,29.68,SE,136,5.0,16.0,64,0.00,,,0.00,183.00,VWS V14.01,2013-02-25 19:02:00,
2013-02-25 13:07:00,56.7,44.7,29.67,ESE,107,11.0,23.0,64,0.00,,,0.00,200.00,VWS V14.01,2013-02-25 19:07:00,
2013-02-25 13:12:00,56.4,45.2,29.67,SE,130,9.0,24.0,66,0.00,,,0.00,214.00,VWS V14.01,2013-02-25 19:12:00,
2013-02-25 13:17:00,56.4,45.6,29.67,SE,142,12.0,24.0,67,0.00,,,0.00,186.00,VWS V14.01,2013-02-25 19:17:00,
2013-02-25 13:22:00,56.4,46.0,29.67,ENE,75,7.0,13.0,68,0.00,,,0.00,153.00,VWS V14.01,2013-02-25 19:22:00,
2013-02-25 13:27:00,56.3,45.9,29.67,ESE,109,12.0,18.0,68,0.00,,,0.00,183.00,VWS V14.01,2013-02-25 19:27:00,
2013-02-25 13:32:00,56.2,46.6,29.66,ESE,106,10.0,16.0,70,0.00,,,0.00,207.00,VWS V14.01,2013-02-25 19:32:00,
2013-02-25 13:37:00,56.0,46.7,29.66,ESE,113,11.0,18.0,71,0.00,,,0.00,172.00,VWS V14.01,2013-02-25 19:37:00,
2013-02-25 13:42:00,55.9,46.7,29.66,SE,134,7.0,14.0,71,0.00,,,0.00,265.00,VWS V14.01,2013-02-25 19:42:00,
2013-02-25 13:47:00,56.4,47.1,29.65,ESE,118,11.0,15.0,71,0.00,,,0.00,316.00,VWS V14.01,2013-02-25 19:47:00,
2013-02-25 13:52:00,56.5,47.2,29.65,SE,124,12.0,18.0,71,0.00,,,0.00,218.00,VWS V14.01,2013-02-25 19:52:00,
2013-02-25 13:57:00,56.0,47.1,29.65,ESE,118,10.0,23.0,72,0.00,,,0.00,141.00,VWS V14.01,2013-02-25 19:57:00,
2013-02-25 14:02:00,55.9,47.4,29.64,ENE,65,12.0,16.0,73,0.00,,,0.00,306.00,VWS V14.01,2013-02-25 20:02:00,
2013-02-25 14:07:00,56.1,47.2,29.63,East,99,8.0,17.0,72,0.00,,,0.00,214.00,VWS V14.01,2013-02-25 20:07:00,
2013-02-25 14:12:00,56.0,47.5,29.63,East,86,10.0,18.0,73,0.00,,,0.00,248.00,VWS V14.01,2013-02-25 20:12:00,
2013-02-25 14:17:00,55.8,47.3,29.62,ESE,106,12.0,21.0,73,0.00,,,0.00,519.00,VWS V14.01,2013-02-25 20:17:00,
2013-02-25 14:22:00,56.2,48.0,29.62,ESE,104,10.0,21.0,74,0.00,,,0.00,496.00,VWS V14.01,2013-02-25 20:22:00,
2013-02-25 14:27:00,57.3,48.0,29.61,ESE,104,11.0,21.0,71,0.00,,,0.00,496.00,VWS V14.01,2013-02-25 20:27:00,
2013-02-25 14:32:00,57.1,47.8,29.61,SE,128,10.0,18.0,71,0.00,,,0.00,478.00,VWS V14.01,2013-02-25 20:32:00,
2013-02-25 14:37:00,57.0,47.7,29.60,ESE,117,11.0,21.0,71,0.00,,,0.00,622.00,VWS V14.01,2013-02-25 20:37:00,
2013-02-25 14:42:00,57.4,48.1,29.59,ESE,107,11.0,14.0,71,0.00,,,0.00,613.00,VWS V14.01,2013-02-25 20:42:00,
2013-02-25 14:47:00,57.6,47.9,29.59,SE,129,9.0,16.0,70,0.00,,,0.00,563.00,VWS V14.01,2013-02-25 20:47:00,
2013-02-25 14:52:00,57.3,47.2,29.58,SE,124,13.0,23.0,69,0.00,,,0.00,278.00,VWS V14.01,2013-02-25 20:52:00,
2013-02-25 14:57:00,57.6,47.5,29.56,ESE,105,11.0,23.0,69,0.00,,,0.00,555.00,VWS V14.01,2013-02-25 20:57:00,
2013-02-25 15:02:00,58.1,47.6,29.57,ESE,116,7.0,19.0,68,0.00,,,0.00,489.00,VWS V14.01,2013-02-25 21:02:00,
2013-02-25 15:07:00,58.7,47.8,29.57,ESE,119,12.0,22.0,67,0.00,,,0.00,631.00,VWS V14.01,2013-02-25 21:07:00,
2013-02-25 15:12:00,59.0,47.3,29.56,East,97,10.0,16.0,65,0.00,,,0.00,248.00,VWS V14.01,2013-02-25 21:12:00,
2013-02-25 15:17:00,58.6,47.3,29.55,SE,126,13.0,21.0,66,0.00,,,0.00,265.00,VWS V14.01,2013-02-25 21:17:00,
2013-02-25 15:22:00,58.4,47.1,29.55,East,95,11.0,17.0,66,0.00,,,0.00,221.00,VWS V14.01,2013-02-25 21:22:00,
2013-02-25 15:27:00,58.3,46.6,29.55,ESE,106,17.0,19.0,65,0.00,,,0.00,202.00,VWS V14.01,2013-02-25 21:27:00,
2013-02-25 15:32:00,58.4,47.1,29.55,ESE,107,11.0,14.0,66,0.00,,,0.00,199.00,VWS V14.01,2013-02-25 21:32:00,
2013-02-25 15:37:00,58.5,46.8,29.55,East,98,9.0,14.0,65,0.00,,,0.00,151.00,VWS V14.01,2013-02-25 21:37:00,
2013-02-25 15:42:00,58.3,46.6,29.55,ESE,112,12.0,16.0,65,0.00,,,0.00,102.00,VWS V14.01,2013-02-25 21:42:00,
2013-02-25 15:47:00,58.3,46.6,29.55,ESE,123,8.0,16.0,65,0.00,,,0.00,146.00,VWS V14.01,2013-02-25 21:47:00,
2013-02-25 15:52:00,58.2,46.5,29.55,ESE,107,5.0,18.0,65,0.00,,,0.00,58.00,VWS V14.01,2013-02-25 21:52:00,
2013-02-25 15:57:00,58.0,46.3,29.54,ESE,107,10.0,18.0,65,0.00,,,0.00,77.00,VWS V14.01,2013-02-25 21:57:00,
2013-02-25 16:02:00,57.8,46.5,29.56,ESE,120,14.0,14.0,66,0.00,,,0.00,47.00,VWS V14.01,2013-02-25 22:02:00,
2013-02-25 16:07:00,57.8,46.5,29.55,ESE,119,5.0,14.0,66,0.00,,,0.00,49.00,VWS V14.01,2013-02-25 22:07:00,
2013-02-25 16:12:00,57.7,46.4,29.55,SE,129,12.0,16.0,66,0.00,,,0.00,56.00,VWS V14.01,2013-02-25 22:12:00,
2013-02-25 16:17:00,57.5,46.6,29.56,ESE,117,9.0,21.0,67,0.00,,,0.00,42.00,VWS V14.01,2013-02-25 22:17:00,
2013-02-25 16:22:00,57.4,46.5,29.55,SE,142,9.0,19.0,67,0.00,,,0.00,35.00,VWS V14.01,2013-02-25 22:22:00,
2013-02-25 16:27:00,57.4,46.5,29.55,ESE,112,9.0,19.0,67,0.00,,,0.00,39.00,VWS V14.01,2013-02-25 22:27:00,
2013-02-25 16:32:00,57.3,46.8,29.53,East,90,15.0,16.0,68,0.00,,,0.00,44.00,VWS V14.01,2013-02-25 22:32:00,
2013-02-25 16:37:00,57.0,46.6,29.52,SE,129,10.0,17.0,68,0.00,,,0.00,72.00,VWS V14.01,2013-02-25 22:37:00,
2013-02-25 16:42:00,56.9,46.8,29.52,East,97,9.0,17.0,69,0.00,,,0.00,58.00,VWS V14.01,2013-02-25 22:42:00,
2013-02-25 16:47:00,56.8,46.8,29.51,ESE,118,9.0,20.0,69,0.00,,,0.00,49.00,VWS V14.01,2013-02-25 22:47:00,
2013-02-25 16:52:00,56.8,46.8,29.51,East,101,13.0,17.0,69,0.00,,,0.00,39.00,VWS V14.01,2013-02-25 22:52:00,
2013-02-25 16:57:00,56.8,46.8,29.51,East,99,8.0,17.0,69,0.00,,,0.00,25.00,VWS V14.01,2013-02-25 22:57:00,
2013-02-25 17:02:00,56.8,46.8,29.52,ESE,121,11.0,14.0,69,0.00,,,0.00,14.00,VWS V14.01,2013-02-25 23:02:00,
2013-02-25 17:07:00,56.9,47.2,29.52,SE,141,6.0,14.0,70,0.00,,,0.00,5.00,VWS V14.01,2013-02-25 23:07:00,
2013-02-25 17:12:00,57.0,47.7,29.52,ESE,103,10.0,15.0,71,0.00,,,0.00,5.00,VWS V14.01,2013-02-25 23:12:00,
2013-02-25 17:17:00,57.1,47.8,29.51,ESE,123,11.0,16.0,71,0.00,,,0.00,0.00,VWS V14.01,2013-02-25 23:17:00,
2013-02-25 17:23:00,57.1,48.2,29.51,ESE,115,13.0,17.0,72,0.00,,,0.00,0.00,VWS V14.01,2013-02-25 23:23:00,
2013-02-25 17:28:00,57.2,48.6,29.51,East,99,7.0,21.0,73,0.00,,,0.00,0.00,VWS V14.01,2013-02-25 23:28:00,
2013-02-25 17:32:00,57.3,48.7,29.50,SE,135,10.0,19.0,73,0.00,,,0.00,0.00,VWS V14.01,2013-02-25 23:32:00,
2013-02-25 17:38:00,57.4,49.2,29.50,ESE,115,5.0,19.0,74,0.00,,,0.00,0.00,VWS V14.01,2013-02-25 23:38:00,
2013-02-25 17:43:00,57.4,49.2,29.51,SE,138,10.0,18.0,74,0.00,,,0.00,0.00,VWS V14.01,2013-02-25 23:43:00,
2013-02-25 17:48:00,57.5,49.7,29.50,SE,125,13.0,21.0,75,0.00,,,0.00,0.00,VWS V14.01,2013-02-25 23:48:00,
2013-02-25 17:53:00,57.5,49.7,29.49,ESE,110,8.0,18.0,75,0.00,,,0.00,0.00,VWS V14.01,2013-02-25 23:53:00,
2013-02-25 17:58:00,57.5,49.7,29.48,ESE,109,16.0,21.0,75,0.00,,,0.00,0.00,VWS V14.01,2013-02-25 23:58:00,
2013-02-25 18:03:00,57.5,49.7,29.49,ESE,122,16.0,19.0,75,0.00,,,0.00,0.00,VWS V14.01,2013-02-26 00:03:00,
2013-02-25 18:08:00,57.6,49.8,29.49,SE,133,11.0,27.0,75,0.00,,,0.00,0.00,VWS V14.01,2013-02-26 00:08:00,
2013-02-25 18:13:00,57.7,50.2,29.49,SE,140,13.0,19.0,76,0.00,,,0.00,0.00,VWS V14.01,2013-02-26 00:13:00,
2013-02-25 18:18:00,57.7,50.2,29.48,SSE,165,14.0,23.0,76,0.00,,,0.00,0.00,VWS V14.01,2013-02-26 00:18:00,
2013-02-25 18:23:00,57.7,50.2,29.47,ESE,118,10.0,20.0,76,0.00,,,0.00,0.00,VWS V14.01,2013-02-26 00:23:00,
2013-02-25 18:28:00,57.7,50.2,29.46,ESE,108,15.0,20.0,76,0.00,,,0.00,0.00,VWS V14.01,2013-02-26 00:28:00,
2013-02-25 18:33:00,57.7,50.2,29.45,East,90,10.0,24.0,76,0.00,,,0.00,0.00,VWS V14.01,2013-02-26 00:33:00,
2013-02-25 18:38:00,57.7,50.2,29.45,SE,125,9.0,24.0,76,0.00,,,0.00,0.00,VWS V14.01,2013-02-26 00:38:00,
2013-02-25 18:43:00,57.7,50.2,29.46,East,95,8.0,18.0,76,0.00,,,0.00,0.00,VWS V14.01,2013-02-26 00:43:00,
2013-02-25 18:48:00,57.8,50.3,29.46,SE,131,14.0,19.0,76,0.00,,,0.00,0.00,VWS V14.01,2013-02-26 00:48:00,
2013-02-25 18:53:00,57.7,50.5,29.46,ESE,103,13.0,14.0,77,0.00,,,0.00,0.00,VWS V14.01,2013-02-26 00:53:00,
2013-02-25 18:58:00,57.7,50.5,29.45,ESE,118,15.0,19.0,77,0.00,,,0.00,0.00,VWS V14.01,2013-02-26 00:58:00,
2013-02-25 19:03:00,57.6,50.8,29.45,SE,136,6.0,17.0,78,0.00,,,0.00,0.00,VWS V14.01,2013-02-26 01:03:00,
2013-02-25 19:08:00,57.2,51.1,29.46,ESE,115,5.0,17.0,80,0.00,,,0.00,0.00,VWS V14.01,2013-02-26 01:08:00,
2013-02-25 19:13:00,57.2,51.1,29.45,ESE,120,8.0,19.0,80,0.00,,,0.00,0.00,VWS V14.01,2013-02-26 01:13:00,
2013-02-25 19:18:00,57.2,51.1,29.44,ESE,107,12.0,19.0,80,0.00,,,0.00,0.00,VWS V14.01,2013-02-26 01:18:00,
2013-02-25 19:23:00,57.4,51.0,29.44,ESE,105,5.0,15.0,79,0.00,,,0.00,0.00,VWS V14.01,2013-02-26 01:23:00,
2013-02-25 19:28:00,57.4,51.0,29.42,ESE,111,11.0,17.0,79,0.00,,,0.00,0.00,VWS V14.01,2013-02-26 01:28:00,
2013-02-25 19:33:00,57.4,51.3,29.41,ESE,119,7.0,14.0,80,0.00,,,0.00,0.00,VWS V14.01,2013-02-26 01:33:00,
2013-02-25 19:38:00,57.5,51.0,29.41,ESE,109,7.0,21.0,79,0.00,,,0.00,0.00,VWS V14.01,2013-02-26 01:38:00,
2013-02-25 19:43:00,57.5,51.4,29.40,ESE,119,14.0,22.0,80,0.00,,,0.00,0.00,VWS V14.01,2013-02-26 01:43:00,
2013-02-25 19:48:00,57.4,51.3,29.40,SE,125,5.0,22.0,80,0.00,,,0.00,0.00,VWS V14.01,2013-02-26 01:48:00,
2013-02-25 19:53:00,57.4,51.3,29.40,ESE,116,14.0,17.0,80,0.00,,,0.00,0.00,VWS V14.01,2013-02-26 01:53:00,
2013-02-25 19:58:00,57.5,51.7,29.40,East,97,13.0,18.0,81,0.00,,,0.00,0.00,VWS V14.01,2013-02-26 01:58:00,
2013-02-25 20:03:00,57.5,51.7,29.39,ENE,69,13.0,18.0,81,0.00,,,0.00,0.00,VWS V14.01,2013-02-26 02:03:00,
2013-02-25 20:08:00,57.5,51.7,29.40,East,91,8.0,23.0,81,0.01,,,0.01,0.00,VWS V14.01,2013-02-26 02:08:00,
2013-02-25 20:13:00,57.5,52.1,29.40,ESE,109,11.0,16.0,82,0.01,,,0.01,0.00,VWS V14.01,2013-02-26 02:13:00,
2013-02-25 20:18:00,57.4,52.3,29.38,ESE,123,9.0,18.0,83,0.01,,,0.01,0.00,VWS V14.01,2013-02-26 02:18:00,
2013-02-25 20:23:00,57.0,52.2,29.40,SE,129,8.0,11.0,84,0.01,,,0.01,0.00,VWS V14.01,2013-02-26 02:23:00,
2013-02-25 20:28:00,56.7,52.2,29.39,ESE,123,11.0,16.0,85,0.02,,,0.02,0.00,VWS V14.01,2013-02-26 02:28:00,
2013-02-25 20:33:00,56.7,52.6,29.38,ESE,116,14.0,20.0,86,0.02,,,0.02,0.00,VWS V14.01,2013-02-26 02:33:00,
2013-02-25 20:38:00,56.5,52.4,29.38,ESE,118,8.0,20.0,86,0.02,,,0.02,0.00,VWS V14.01,2013-02-26 02:38:00,
2013-02-25 20:43:00,56.3,52.5,29.37,ESE,123,8.0,17.0,87,0.04,,,0.04,0.00,VWS V14.01,2013-02-26 02:43:00,
2013-02-25 20:48:00,56.1,52.3,29.38,SE,141,5.0,17.0,87,0.06,,,0.06,0.00,VWS V14.01,2013-02-26 02:48:00,
2013-02-25 20:53:00,55.9,52.4,29.38,SE,126,9.0,14.0,88,0.08,,,0.08,0.00,VWS V14.01,2013-02-26 02:53:00,
2013-02-25 20:58:00,55.8,52.6,29.38,ESE,115,8.0,16.0,89,0.11,,,0.11,0.00,VWS V14.01,2013-02-26 02:58:00,
2013-02-25 21:03:00,55.7,52.8,29.37,ESE,117,9.0,11.0,90,0.14,,,0.14,0.00,VWS V14.01,2013-02-26 03:03:00,
2013-02-25 21:08:00,55.6,52.7,29.36,SSE,151,11.0,18.0,90,0.16,,,0.16,0.00,VWS V14.01,2013-02-26 03:08:00,
2013-02-25 21:13:00,55.5,52.9,29.35,ESE,115,8.0,16.0,91,0.17,,,0.18,0.00,VWS V14.01,2013-02-26 03:13:00,
2013-02-25 21:18:00,55.3,52.7,29.33,ESE,119,13.0,16.0,91,0.20,,,0.21,0.00,VWS V14.01,2013-02-26 03:18:00,
2013-02-25 21:23:00,55.3,52.7,29.34,SE,144,8.0,16.0,91,0.22,,,0.23,0.00,VWS V14.01,2013-02-26 03:23:00,
2013-02-25 21:28:00,55.2,52.6,29.33,East,98,17.0,22.0,91,0.23,,,0.24,0.00,VWS V14.01,2013-02-26 03:28:00,
2013-02-25 21:33:00,55.1,52.5,29.35,SSE,150,6.0,18.0,91,0.24,,,0.26,0.00,VWS V14.01,2013-02-26 03:33:00,
2013-02-25 21:38:00,55.0,52.7,29.33,East,95,14.0,21.0,92,0.24,,,0.26,0.00,VWS V14.01,2013-02-26 03:38:00,
2013-02-25 21:43:00,55.0,52.7,29.33,SE,134,7.0,17.0,92,0.24,,,0.27,0.00,VWS V14.01,2013-02-26 03:43:00,
2013-02-25 21:48:00,54.8,52.5,29.32,East,100,9.0,21.0,92,0.25,,,0.28,0.00,VWS V14.01,2013-02-26 03:48:00,
2013-02-25 21:53:00,54.7,52.4,29.30,SE,125,8.0,21.0,92,0.21,,,0.28,0.00,VWS V14.01,2013-02-26 03:53:00,
2013-02-25 21:58:00,54.7,52.4,29.31,ESE,113,8.0,22.0,92,0.22,,,0.29,0.00,VWS V14.01,2013-02-26 03:58:00,
2013-02-25 22:03:00,54.5,52.2,29.30,ESE,106,13.0,14.0,92,0.17,,,0.29,0.00,VWS V14.01,2013-02-26 04:03:00,
2013-02-25 22:08:00,54.5,52.2,29.30,SE,136,7.0,19.0,92,0.17,,,0.29,0.00,VWS V14.01,2013-02-26 04:08:00,
2013-02-25 22:13:00,54.6,52.3,29.35,SW,218,10.0,16.0,92,0.12,,,0.29,0.00,VWS V14.01,2013-02-26 04:13:00,
2013-02-25 22:18:00,54.7,52.4,29.36,SSW,193,8.0,17.0,92,0.19,,,0.36,0.00,VWS V14.01,2013-02-26 04:18:00,
2013-02-25 22:23:00,54.7,52.4,29.36,SSW,196,4.0,12.0,92,0.14,,,0.36,0.00,VWS V14.01,2013-02-26 04:23:00,
2013-02-25 22:28:00,54.7,52.4,29.36,SSE,165,7.0,12.0,92,0.15,,,0.37,0.00,VWS V14.01,2013-02-26 04:28:00,
2013-02-25 22:33:00,54.8,52.5,29.36,SSE,160,5.0,8.0,92,0.12,,,0.37,0.00,VWS V14.01,2013-02-26 04:33:00,
2013-02-25 22:38:00,55.0,53.0,29.36,South,182,5.0,12.0,93,0.14,,,0.39,0.00,VWS V14.01,2013-02-26 04:38:00,
2013-02-25 22:43:00,55.0,53.0,29.36,SSE,165,4.0,9.0,93,0.15,,,0.41,0.00,VWS V14.01,2013-02-26 04:43:00,
2013-02-25 22:48:00,55.2,53.2,29.36,SSE,166,4.0,11.0,93,0.17,,,0.43,0.00,VWS V14.01,2013-02-26 04:48:00,
2013-02-25 22:53:00,55.4,53.4,29.36,SSE,157,4.0,11.0,93,0.16,,,0.44,0.00,VWS V14.01,2013-02-26 04:53:00,
2013-02-25 22:58:00,55.5,53.5,29.35,SSE,167,7.0,15.0,93,0.18,,,0.46,0.00,VWS V14.01,2013-02-26 04:58:00,
2013-02-25 23:00:00,55.6,53.6,29.35,SE,125,8.0,15.0,93,0.18,,,0.46,0.00,VWS V14.01,2013-02-26 05:00:00,
2013-02-25 23:05:00,55.6,53.9,29.35,South,171,9.0,13.0,94,0.18,,,0.47,0.00,VWS V14.01,2013-02-26 05:05:00,
2013-02-25 23:10:00,55.5,53.5,29.35,SSE,147,6.0,7.0,93,0.18,,,0.47,0.00,VWS V14.01,2013-02-26 05:10:00,
2013-02-25 23:15:00,55.1,53.1,29.34,SSE,165,2.0,8.0,93,0.19,,,0.48,0.00,VWS V14.01,2013-02-26 05:15:00,
2013-02-25 23:20:00,54.8,52.8,29.34,SE,141,5.0,5.0,93,0.13,,,0.49,0.00,VWS V14.01,2013-02-26 05:20:00,
2013-02-25 23:25:00,54.6,52.6,29.34,SE,130,5.0,8.0,93,0.14,,,0.50,0.00,VWS V14.01,2013-02-26 05:25:00,
2013-02-25 23:30:00,54.5,52.5,29.35,SE,136,3.0,5.0,93,0.13,,,0.50,0.00,VWS V14.01,2013-02-26 05:30:00,
2013-02-25 23:35:00,54.2,52.2,29.34,SE,134,2.0,8.0,93,0.15,,,0.52,0.00,VWS V14.01,2013-02-26 05:35:00,
2013-02-25 23:40:00,54.0,52.0,29.34,SSE,168,7.0,7.0,93,0.13,,,0.53,0.00,VWS V14.01,2013-02-26 05:40:00,
2013-02-25 23:45:00,53.9,51.9,29.32,SE,134,4.0,7.0,93,0.13,,,0.53,0.00,VWS V14.01,2013-02-26 05:45:00,
2013-02-25 23:50:00,53.6,51.6,29.30,SSE,149,2.0,5.0,93,0.10,,,0.53,0.00,VWS V14.01,2013-02-26 05:50:00,
2013-02-25 23:55:00,53.4,51.4,29.34,SE,141,5.0,9.0,93,0.10,,,0.53,0.00,VWS V14.01,2013-02-26 05:55:00,